Location: Sternwarte Stuttgart
(48.7670°N, 9.1830°E)
Time: 20:15:18
(UTC+02:00)

Cosmos 405 Rocket - Pass Details

Date: 24 January 2019
Orbit: 490 x 556 km, 81.3° (Epoch: 21 April)

Event Time Altitude Azimuth Distance (km) Brightness Sun altitude
Rises 07:16:49 0° 227° (SW) 2,624 6.0 -7.8°
Reaches altitude 10° 07:19:26 10° 246° (WSW) 1,730 4.9 -7.4°
Maximum altitude 07:22:12 19° 293° (WNW) 1,254 4.0 -7.0°
Drops below altitude 10° 07:24:57 10° 340° (NNW) 1,717 5.0 -6.6°
Sets 07:27:33 0° 359° (N) 2,597 6.0 -6.2°
